FW8343 Weather Reports


time (UTC)temp
F
wind
direction
speed
knots
gust
knots
rain 1hr
in
rain 24hr
in
rain mn
in
humidity
%
barometer
mb
20260905062520 63 0 0.0 0.0 0.00 0.00 0.00 99 1018.6
20260905062020 63 0 0.0 0.9 0.00 0.00 0.00 99 1018.5
20260905061536 63 0 0.0 0.9 0.00 0.00 0.00 99 1018.5
20260905061020 63 0 0.0 0.0 0.00 0.00 0.00 99 1018.5
20260905060520 63 0 0.0 0.9 0.00 0.00 0.00 99 1018.4
20260905060033 64 0 0.0 0.9 0.00 0.00 0.00 99 1018.4
20260905055519 64 344 0.0 0.9 0.00 0.00 0.00 99 1018.4
20260905055020 64 0 0.0 0.0 0.00 0.00 0.00 99 1018.3
20260905054536 64 0 0.0 0.0 0.00 0.00 0.00 99 1018.3
20260905054016 64 0 0.0 0.0 0.00 0.00 0.00 99 1018.2
20260905053521 64 0 0.0 0.0 0.00 0.00 0.00 99 1018.2
20260905053036 64 0 0.0 0.0 0.00 0.00 0.00 99 1018.2
20260905052519 63 0 0.0 0.0 0.00 0.00 0.00 99 1018.3
20260905052023 63 0 0.0 0.0 0.00 0.00 0.00 99 1018.3
20260905051533 63 0 0.0 1.7 0.00 0.00 0.00 99 1018.3
20260905051019 63 0 0.0 1.7 0.00 0.00 0.00 99 1018.4
20260905050522 63 344 0.0 1.7 0.00 0.00 0.00 99 1018.4
20260905050037 63 0 0.0 0.9 0.00 0.00 0.00 99 1018.4
20260905045518 63 0 0.0 2.6 0.00 0.00 0.00 99 1018.4
20260905045019 63 0 0.0 2.6 0.00 0.00 0.00 99 1018.3
20260905044543 63 0 0.0 2.6 0.00 0.00 0.00 99 1018.3
20260905044021 63 0 0.0 1.7 0.00 0.00 0.00 98 1018.3
20260905043520 63 0 0.0 2.6 0.00 0.00 0.00 98 1018.3
20260905043047 64 0 0.0 2.6 0.00 0.00 0.00 98 1018.3
20260905042519 64 344 0.0 1.7 0.00 0.00 0.00 98 1018.4
20260905042021 64 0 0.0 1.7 0.00 0.00 0.00 98 1018.4
20260905041534 64 0 0.0 0.0 0.00 0.00 0.00 98 1018.3
20260905041020 64 0 0.0 0.0 0.00 0.00 0.00 98 1018.4
20260905040520 64 0 0.0 0.0 0.00 0.00 0.00 98 1018.4
20260905040037 64 0 0.0 0.0 0.00 0.00 0.00 98 1018.3
20260905035518 64 0 0.0 0.0 0.00 0.00 0.00 98 1018.4
20260905035017 64 0 0.0 0.0 0.00 0.00 0.00 98 1018.4
20260905034537 64 0 0.0 0.0 0.00 0.00 0.00 98 1018.3
20260905034020 64 0 0.0 0.9 0.00 0.00 0.00 98 1018.4
20260905033521 64 0 0.0 0.9 0.00 0.00 0.00 98 1018.4
20260905033035 64 0 0.0 1.7 0.00 0.00 0.00 98 1018.4
20260905032520 64 0 0.0 1.7 0.00 0.00 0.00 98 1018.4
20260905032023 64 0 0.0 0.0 0.00 0.00 0.00 98 1018.4
20260905031542 64 0 0.0 0.0 0.00 0.00 0.00 98 1018.5
20260905031020 64 0 0.0 0.0 0.00 0.00 0.00 98 1018.4
20260905030520 64 0 0.0 0.0 0.00 0.00 0.00 97 1018.4
20260905030037 64 0 0.0 0.0 0.00 0.00 0.00 97 1018.3
20260905025517 64 0 0.0 0.0 0.00 0.00 0.00 97 1018.4
20260905025020 64 0 0.0 0.0 0.00 0.00 0.00 97 1018.3
20260905024534 64 0 0.0 0.0 0.00 0.00 0.00 97 1018.4
20260905024020 64 0 0.0 0.0 0.00 0.00 0.00 97 1018.2
20260905023520 64 0 0.0 0.9 0.00 0.00 0.00 97 1018.1
20260905023035 64 0 0.0 1.7 0.00 0.00 0.00 97 1018.1
20260905022518 64 0 0.0 1.7 0.00 0.00 0.00 97 1018.1
20260905022018 65 0 0.0 1.7 0.00 0.00 0.00 97 1018.1
20260905021537 65 0 0.0 1.7 0.00 0.00 0.00 97 1018.1
20260905021022 65 0 0.0 1.7 0.00 0.00 0.00 97 1018.1
20260905020523 65 299 0.0 0.9 0.00 0.00 0.00 97 1018.0
20260905020046 65 0 0.0 0.0 0.00 0.00 0.00 97 1018.1
20260905015521 65 0 0.0 0.0 0.00 0.00 0.00 97 1018.1
20260905015023 65 0 0.0 0.0 0.00 0.00 0.00 97 1018.1
20260905014533 65 0 0.0 0.0 0.00 0.00 0.00 97 1018.1
20260905014016 65 0 0.0 0.0 0.00 0.00 0.00 96 1018.1
20260905013519 65 0 0.0 0.0 0.00 0.00 0.00 96 1018.1
20260905013046 65 0 0.0 0.0 0.00 0.00 0.00 96 1018.0
20260905012523 65 0 0.0 0.0 0.00 0.00 0.00 96 1018.0
20260905012023 65 0 0.0 0.9 0.00 0.00 0.00 96 1018.0
20260905011605 65 0 0.0 0.9 0.00 0.00 0.00 96 1018.0
20260905011020 65 0 0.0 1.7 0.00 0.00 0.00 95 1017.9
20260905010520 65 0 0.0 1.7 0.00 0.00 0.00 95 1017.6
20260905010033 65 0 0.0 0.0 0.00 0.00 0.00 95 1017.5
20260905005521 65 0 0.0 0.0 0.00 0.00 0.00 96 1017.5
20260905005021 65 0 0.0 0.0 0.00 0.00 0.00 96 1017.5
20260905004536 65 0 0.0 0.9 0.00 0.00 0.00 95 1017.5
20260905004018 65 0 0.0 0.9 0.00 0.00 0.00 95 1017.4
20260905003516 65 0 0.0 0.9 0.00 0.00 0.00 95 1017.5
20260905003037 65 0 0.0 1.7 0.00 0.00 0.00 95 1017.3
20260905002520 66 0 0.0 2.6 0.00 0.00 0.00 94 1017.3
20260905002021 66 0 0.0 2.6 0.00 0.00 0.00 94 1017.2
20260905001545 66 0 0.0 2.6 0.00 0.00 0.00 94 1017.3
20260905001022 66 0 0.0 1.7 0.00 0.00 0.00 94 1017.3
20260905000520 66 0 0.0 1.7 0.00 0.00 0.00 94 1017.2
20260905000037 66 0 0.0 1.7 0.00 0.00 0.00 93 1017.2
20260904235517 66 0 0.0 3.5 0.00 0.00 0.00 94 1017.2
20260904235025 66 0 0.0 3.5 0.00 0.00 0.00 94 1017.3
20260904234538 66 0 0.0 1.7 0.00 0.00 0.00 94 1017.2
20260904234016 67 0 0.0 0.9 0.00 0.00 0.00 94 1017.2
20260904233516 67 0 0.0 0.9 0.00 0.00 0.00 94 1017.1
20260904233035 67 291 0.0 1.7 0.00 0.00 0.00 93 1017.1
20260904232520 67 0 0.0 1.7 0.00 0.00 0.00 93 1017.2
20260904232021 67 0 0.0 1.7 0.00 0.00 0.00 93 1017.2
20260904231535 67 0 0.0 1.7 0.00 0.00 0.00 93 1017.1
20260904231021 67 0 0.0 1.7 0.00 0.00 0.00 93 1017.0
20260904230521 67 0 0.0 1.7 0.00 0.00 0.00 93 1016.9
20260904230038 67 0 0.0 2.6 0.00 0.00 0.00 94 1016.9
20260904225522 67 0 0.0 2.6 0.00 0.00 0.00 94 1016.8
20260904225020 67 0 0.0 1.7 0.00 0.00 0.00 94 1016.7
20260904224536 67 0 0.0 2.6 0.00 0.00 0.00 94 1016.7
20260904224018 67 0 0.0 2.6 0.00 0.00 0.00 94 1016.8
20260904223518 67 0 0.0 2.6 0.00 0.00 0.00 94 1016.7
20260904223034 67 291 0.0 2.6 0.00 0.00 0.00 94 1016.8
20260904222516 67 0 0.0 2.6 0.00 0.00 0.00 94 1016.7
20260904222017 67 0 0.0 2.6 0.00 0.00 0.00 94 1016.7
20260904221534 68 308 0.0 2.6 0.00 0.00 0.00 94 1016.6
20260904221020 68 0 0.0 2.6 0.00 0.00 0.00 94 1016.5
20260904220521 68 175 0.0 2.6 0.00 0.00 0.00 93 1016.5
20260904220037 68 0 0.0 2.6 0.00 0.00 0.00 93 1016.4
20260904215520 69 0 0.0 2.6 0.00 0.00 0.00 93 1016.3
20260904215019 69 0 0.0 2.6 0.00 0.00 0.00 93 1016.3
20260904214537 69 0 0.0 2.6 0.00 0.00 0.00 92 1016.3
20260904214019 69 278 0.0 1.7 0.00 0.00 0.00 91 1016.3
20260904213518 70 0 0.0 1.7 0.00 0.00 0.00 91 1016.2
20260904213036 70 0 0.0 1.7 0.00 0.00 0.00 91 1016.2
20260904212519 70 0 0.0 1.7 0.00 0.00 0.00 91 1016.2
20260904212023 71 0 0.0 0.9 0.00 0.00 0.00 91 1016.2
20260904211534 71 0 0.0 0.9 0.00 0.00 0.00 91 1016.1
20260904211021 71 0 0.0 1.7 0.00 0.00 0.00 91 1016.1
20260904210520 71 0 0.0 1.7 0.00 0.00 0.00 90 1015.9
20260904210036 71 0 0.0 1.7 0.00 0.00 0.00 90 1016.1
20260904205525 71 0 0.0 1.7 0.00 0.00 0.00 90 1016.0
20260904205021 72 0 0.0 1.7 0.00 0.00 0.00 91 1016.0
20260904204537 72 0 0.0 2.6 0.00 0.00 0.00 91 1015.9
20260904204020 72 0 0.0 2.6 0.00 0.00 0.00 91 1015.8
20260904203519 72 0 0.0 1.7 0.00 0.00 0.00 90 1015.9
20260904203037 72 271 0.0 1.7 0.00 0.00 0.00 91 1015.8
20260904202518 72 0 0.0 0.9 0.00 0.00 0.00 90 1015.8
20260904202017 72 0 0.0 0.9 0.00 0.00 0.00 90 1015.8
20260904201534 72 0 0.0 2.6 0.00 0.00 0.00 90 1015.8
20260904201017 72 0 0.0 3.5 0.00 0.00 0.00 90 1015.8
20260904200521 72 0 0.0 3.5 0.00 0.00 0.00 90 1015.9
20260904200036 73 0 0.0 3.5 0.00 0.00 0.00 89 1015.9
20260904195521 73 0 0.0 1.7 0.00 0.00 0.00 89 1015.9
20260904195019 73 0 0.0 1.7 0.00 0.00 0.00 90 1015.8
20260904194539 73 0 0.0 1.7 0.00 0.00 0.00 90 1015.7
20260904194020 73 0 0.0 1.7 0.00 0.00 0.00 91 1015.8
20260904193519 73 0 0.0 1.7 0.00 0.00 0.00 91 1015.8
20260904193034 73 0 0.0 1.7 0.00 0.00 0.00 90 1015.6
20260904192517 73 0 0.0 2.6 0.00 0.00 0.00 91 1015.7
20260904192020 73 0 0.0 2.6 0.00 0.00 0.00 91 1015.7
20260904191535 73 0 0.0 2.6 0.00 0.00 0.00 90 1015.7
20260904191020 73 0 0.0 1.7 0.00 0.00 0.00 90 1015.7
20260904190520 73 0 0.0 1.7 0.00 0.00 0.00 90 1015.6
20260904190035 73 0 0.0 3.5 0.00 0.00 0.00 89 1015.6
20260904185519 73 0 0.0 3.5 0.00 0.00 0.00 89 1015.5
20260904185018 74 0 0.0 3.5 0.00 0.00 0.00 89 1015.4
20260904184538 74 0 0.0 3.5 0.00 0.00 0.00 89 1015.4
20260904184017 74 0 0.0 2.6 0.00 0.00 0.00 89 1015.3
20260904183521 74 0 0.0 2.6 0.00 0.00 0.00 89 1015.3
20260904183040 73 0 0.0 3.5 0.00 0.00 0.00 89 1015.2
20260904182520 74 0 0.0 3.5 0.00 0.00 0.00 89 1015.3
20260904182025 74 311 0.0 3.5 0.00 0.00 0.00 89 1015.3
20260904181552 73 0 0.0 2.6 0.00 0.00 0.00 91 1015.3
20260904181021 73 0 0.0 2.6 0.00 0.00 0.00 92 1015.3
20260904180522 73 0 0.0 2.6 0.00 0.00 0.00 91 1015.3
20260904180039 73 352 0.0 2.6 0.00 0.00 0.00 92 1015.3
20260904175516 72 0 0.0 0.0 0.00 0.00 0.00 93 1015.3
20260904175018 72 0 0.0 1.7 0.00 0.00 0.00 94 1015.3
20260904174534 72 0 0.0 1.7 0.00 0.00 0.00 94 1015.2
20260904174021 71 0 0.0 0.0 0.00 0.00 0.00 95 1015.2
20260904173520 71 0 0.0 0.0 0.00 0.00 0.00 95 1015.3
20260904173036 71 0 0.0 0.0 0.00 0.00 0.00 96 1015.2
20260904172520 71 0 0.0 0.9 0.00 0.00 0.00 95 1015.2
20260904172025 70 0 0.0 0.9 0.00 0.00 0.00 95 1015.2
20260904171540 70 0 0.0 0.0 0.00 0.00 0.00 96 1015.3
20260904171020 70 0 0.0 0.0 0.00 0.00 0.00 96 1015.2
20260904170516 70 0 0.0 0.0 0.00 0.00 0.00 96 1015.2
20260904170035 69 0 0.0 0.0 0.00 0.00 0.00 97 1015.2
20260904165522 69 0 0.0 0.9 0.00 0.00 0.00 97 1015.2
20260904165019 69 0 0.0 1.7 0.00 0.00 0.00 97 1015.2
20260904164541 69 0 0.0 1.7 0.00 0.00 0.00 97 1015.4
20260904164021 69 0 0.0 2.6 0.00 0.00 0.00 97 1015.4
20260904163522 69 0 0.9 2.6 0.00 0.00 0.00 98 1015.3
20260904163035 69 0 0.0 1.7 0.00 0.00 0.00 98 1015.3
20260904162520 68 0 0.0 1.7 0.00 0.00 0.00 98 1015.4
20260904162020 68 0 0.0 1.7 0.00 0.00 0.00 98 1015.4
20260904161535 68 323 0.0 2.6 0.00 0.00 0.00 98 1015.4
20260904161019 68 0 0.0 2.6 0.00 0.00 0.00 98 1015.4
20260904160519 67 0 0.0 1.7 0.00 0.00 0.00 98 1015.3
20260904160036 67 0 0.0 1.7 0.00 0.00 0.00 99 1015.5
20260904155516 67 0 0.0 1.7 0.00 0.00 0.00 99 1015.4
20260904155017 67 0 0.0 0.0 0.00 0.00 0.00 99 1015.4
20260904154545 67 0 0.0 0.0 0.00 0.00 0.00 99 1015.3
20260904154023 67 0 0.0 0.9 0.00 0.00 0.00 98 1015.2
20260904153520 67 0 0.0 0.9 0.00 0.00 0.00 98 1015.2
20260904153036 67 0 0.0 0.9 0.00 0.00 0.00 99 1015.1
20260904152524 67 0 0.0 1.7 0.00 0.00 0.00 99 1015.1
20260904152019 67 0 0.0 1.7 0.00 0.00 0.00 99 1015.1
20260904151538 66 0 0.0 1.7 0.00 0.00 0.00 99 1015.0
20260904151017 66 0 0.0 1.7 0.00 0.00 0.00 99 1015.0
20260904150518 66 0 0.0 0.9 0.00 0.00 0.00 99 1015.0
20260904150035 66 0 0.0 0.9 0.00 0.00 0.00 99 1014.9
20260904145516 66 0 0.0 0.9 0.00 0.00 0.00 99 1014.8
20260904145020 66 0 0.0 0.9 0.00 0.00 0.00 99 1014.7
20260904144535 66 0 0.0 0.9 0.00 0.00 0.00 98 1014.7
20260904144024 66 0 0.0 1.7 0.00 0.00 0.00 98 1014.6
20260904143520 66 0 0.0 1.7 0.00 0.00 0.00 99 1014.6
20260904143036 65 0 0.0 1.7 0.00 0.00 0.00 99 1014.5
20260904142520 65 0 0.0 0.9 0.00 0.00 0.00 98 1014.4
20260904142028 65 0 0.0 0.9 0.00 0.00 0.00 98 1014.4
20260904141542 65 0 0.0 0.9 0.00 0.00 0.00 98 1014.3
20260904141020 66 0 0.0 0.9 0.00 0.00 0.00 98 1014.3
20260904140519 66 0 0.0 0.9 0.00 0.00 0.00 98 1014.4
20260904140044 66 0 0.0 1.7 0.00 0.00 0.00 98 1014.3
20260904135521 67 0 0.0 2.6 0.00 0.00 0.00 98 1014.2
20260904135020 67 0 0.9 2.6 0.00 0.00 0.00 98 1014.2
20260904134534 69 323 0.0 0.0 0.00 0.00 0.00 99 1014.1
20260904134017 69 0 0.0 0.0 0.00 0.00 0.00 99 1014.1
20260904133522 69 0 0.0 0.0 0.00 0.00 0.00 99 1014.1
20260904133037 69 0 0.0 0.0 0.00 0.00 0.00 99 1014.0
20260904132520 69 0 0.0 2.6 0.00 0.00 0.00 99 1013.9
20260904132020 69 0 0.0 2.6 0.00 0.00 0.00 99 1013.8
20260904131533 69 0 0.9 2.6 0.00 0.00 0.00 99 1013.8
20260904131022 68 145 0.0 1.7 0.00 0.00 0.00 99 1013.7
20260904130519 68 0 0.0 6.1 0.00 0.00 0.00 99 1013.6
20260904130035 68 0 0.9 6.1 0.00 0.00 0.00 99 1013.6
20260904125518 68 134 2.6 6.1 0.00 0.00 0.00 99 1013.4
20260904125016 68 167 1.7 7.0 0.00 0.00 0.00 99 1013.4
20260904124535 68 148 1.7 7.0 0.00 0.00 0.00 99 1013.3
20260904124016 68 0 1.7 7.0 0.00 0.00 0.00 99 1013.2
20260904123522 68 116 2.6 4.3 0.00 0.00 0.00 99 1013.1
20260904123035 68 151 0.9 3.5 0.00 0.00 0.00 99 1013.1
20260904122523 68 132 0.9 3.5 0.00 0.00 0.00 99 1013.0
20260904122020 68 123 0.9 3.5 0.00 0.00 0.00 99 1012.9
20260904121534 68 123 0.0 3.5 0.00 0.00 0.00 99 1012.9
20260904121020 68 123 0.9 3.5 0.00 0.00 0.00 99 1012.8
20260904120520 68 116 1.7 3.5 0.00 0.00 0.00 99 1012.8
20260904120046 68 142 1.7 3.5 0.00 0.00 0.00 99 1012.7
20260904115518 67 123 0.9 3.5 0.00 0.00 0.00 98 1012.7
20260904115017 67 123 0.9 3.5 0.00 0.00 0.00 98 1012.7
20260904114536 67 123 0.0 2.6 0.00 0.00 0.00 98 1012.8
20260904114020 67 123 0.9 2.6 0.00 0.00 0.00 98 1012.8
20260904113520 67 123 0.9 3.5 0.00 0.00 0.00 98 1012.6
20260904113041 67 0 0.9 3.5 0.00 0.00 0.00 98 1012.7
20260904112520 67 105 0.9 5.2 0.00 0.00 0.00 98 1012.6
20260904112019 67 126 1.7 5.2 0.00 0.00 0.00 98 1012.6
20260904111537 67 128 1.7 4.3 0.00 0.00 0.00 98 1012.5
20260904111021 67 112 1.7 4.3 0.00 0.00 0.00 98 1012.6
20260904110520 66 157 0.9 4.3 0.00 0.00 0.00 98 1012.5
20260904110033 66 148 1.7 4.3 0.00 0.00 0.00 98 1012.5
20260904105520 66 0 0.9 4.3 0.00 0.00 0.00 98 1012.5
20260904105017 66 128 0.9 2.6 0.00 0.00 0.00 98 1012.4
20260904104548 65 0 0.0 2.6 0.00 0.00 0.00 97 1012.5
20260904104019 65 0 0.0 0.0 0.00 0.00 0.00 97 1012.7
20260904103515 65 0 0.0 0.0 0.00 0.00 0.00 97 1012.8
20260904103034 65 0 0.0 0.9 0.00 0.00 0.00 97 1013.0
20260904102518 65 0 0.0 1.7 0.00 0.00 0.00 96 1013.0
20260904102024 66 0 0.0 1.7 0.00 0.00 0.00 96 1013.0
20260904101533 66 128 0.0 2.6 0.00 0.00 0.00 97 1013.0
20260904101021 66 0 0.0 3.5 0.00 0.00 0.00 97 1012.8
20260904100521 66 128 0.0 3.5 0.00 0.00 0.00 97 1012.7
20260904100037 66 128 0.0 3.5 0.00 0.00 0.00 97 1012.8
20260904095523 66 0 0.0 3.5 0.00 0.00 0.00 97 1012.9
20260904095019 66 0 0.0 3.5 0.00 0.00 0.00 97 1012.8
20260904094536 66 146 0.9 4.3 0.00 0.00 0.00 97 1012.8
20260904094016 66 139 1.7 4.3 0.00 0.00 0.00 97 1012.9
20260904093518 66 132 1.7 6.1 0.00 0.00 0.00 98 1013.0
20260904093033 66 138 1.7 6.1 0.00 0.00 0.00 98 1012.6
20260904092519 65 140 0.0 1.7 0.00 0.00 0.00 97 1013.2
20260904092020 65 0 0.0 1.7 0.00 0.00 0.00 97 1013.6
20260904091537 65 187 0.0 1.7 0.00 0.00 0.00 97 1013.5
20260904091017 65 0 0.0 4.3 0.00 0.00 0.00 97 1013.4
20260904090516 65 0 0.0 4.3 0.00 0.00 0.00 96 1013.8
20260904090036 65 0 0.9 3.5 0.00 0.00 0.00 97 1014.3
20260904085521 65 339 0.9 3.5 0.00 0.00 0.00 97 1014.7
20260904085020 65 0 0.0 0.0 0.00 0.00 0.00 97 1013.6
20260904084539 65 0 0.0 0.0 0.00 0.00 0.00 97 1013.6
20260904084020 65 0 0.0 0.0 0.00 0.00 0.00 97 1013.4
20260904083519 65 0 0.0 0.0 0.00 0.00 0.00 97 1013.3
20260904083037 65 0 0.0 0.0 0.00 0.00 0.00 97 1013.3
20260904082518 65 0 0.0 0.0 0.00 0.00 0.00 97 1013.1
20260904082018 65 0 0.0 0.0 0.00 0.00 0.00 97 1013.1
20260904081535 65 0 0.0 0.0 0.00 0.00 0.00 97 1013.1
20260904081018 65 0 0.0 0.0 0.00 0.00 0.00 97 1013.0
20260904080516 65 0 0.0 0.0 0.00 0.00 0.00 97 1012.7
20260904080036 65 0 0.0 0.0 0.00 0.00 0.00 97 1012.7
20260904075521 65 0 0.0 0.0 0.00 0.00 0.00 97 1012.8
20260904075021 65 0 0.0 0.0 0.00 0.00 0.00 97 1012.8
20260904074534 65 0 0.0 0.0 0.00 0.00 0.00 97 1013.0
20260904074019 65 0 0.0 0.0 0.00 0.00 0.00 97 1012.9
20260904073518 64 0 0.0 0.0 0.00 0.00 0.00 97 1012.9
20260904073037 65 0 0.0 0.0 0.00 0.00 0.00 97 1012.8
20260904072517 64 0 0.0 0.0 0.00 0.00 0.00 97 1012.9
20260904072020 64 0 0.0 0.0 0.00 0.00 0.00 97 1012.8
20260904071542 64 0 0.0 0.0 0.00 0.00 0.00 97 1012.7
20260904071020 64 0 0.0 0.0 0.00 0.00 0.00 97 1012.8
20260904070520 64 0 0.0 1.7 0.00 0.00 0.00 97 1012.9
20260904070036 64 0 0.0 1.7 0.00 0.00 0.00 97 1012.9
20260904065521 64 190 0.0 1.7 0.00 0.00 0.00 96 1013.2
20260904065020 64 0 0.0 0.0 0.00 0.00 0.00 96 1013.5
20260904064538 64 0 0.0 0.0 0.00 0.00 0.00 96 1013.4
20260904064018 65 0 0.0 1.7 0.00 0.00 0.00 96 1013.5
20260904063518 65 0 0.0 1.7 0.00 0.00 0.00 97 1013.4
20260904063038 65 0 0.0 2.6 0.00 0.00 0.00 97 1013.5